Terminal Aerodrome Forecast
Issued by NWS

Home | Current Version | Previous Version | Text Only | Print | Product List | Glossary On
Versions: 1 2 3 4 5 6 7 8 9 10 11 12 13 14 15 16 17 18 19 20 21 22 23 24 25 26 27 28 29 30 31 32 33 34 35 36 37 38 39 40
000
FTPA31 PHFO 040500
TAFOGG
TAF
PHOG 040520Z 0406/0506 05010KT P6SM VCSH SCT017 BKN030 OVC200
     FM042000 02010G15KT 6SM SHRA BKN013 BKN030 OVC150
     FM050300 03010KT P6SM VCSH SCT015 BKN035 OVC120
      AMD LTD TO WX VIS AND WIND 0409/0416=

USA.gov is the U.S. government's official web portal to all federal, state and local government web resources and services.